Location: Newark
(42.8481°N, 0.4872°E)
Time: 08:31:05
(UTC+00:00)

SR - Pass Details

Date: 01 November 2020
Orbit: 579 x 876 km, 66.7° (Epoch: 29 November)

Event Time Altitude Azimuth Distance (km) Brightness Sun altitude
Rises 00:51:08 0° 198° (SSW) 2,781 - -58.0°
Reaches altitude 10° 00:53:21 10° 194° (SSW) 1,885 - -57.8°
Maximum altitude 00:57:28 55° 116° (ESE) 705 - -57.3°
Drops below altitude 10° 01:01:43 10° 39° (NE) 1,957 - -56.9°
Sets 01:04:04 0° 35° (NE) 2,898 - -56.6°
